DELTA 1 DEB, 29184

Orbit data source: Space-Track

DELTA 1 DEB, 29184 is space debris in LEO originally from a launch on Thu, 11 Jan 1968 UTC launched from the Air Force Western Test Range (AFWTR). Debris objects in space refer to the collection of defunct objects orbiting the Earth. Examples of debris include non-operational satellites, rocket bodies, and fragments generated from explosions, collisions, or faulty payload assembly.

Loading next visibility...
Identifier
29184, 1968-002H
Orbit
LEO
Country
Flag of USUS
Related business
Manufacturer
Unknown
Mission
Spacecraft
Bus & Motor
Unknown
Mass
Unknown
Launch date (UTC)
1968-01-11 (58 years ago)
Launch vehicle
Unknown
Launch site
Air Force Western Test Range (AFWTR)
Object type
Payload
Rocket body
Debris
Shape & HBR
Unknown shape, 0.1 m
Radar Cross Section
Small (<0.1 m²)

Expand to show TLE details & history
Last TLE update: 3 weeks ago

TLE from 3 weeks ago
0 DELTA 1 DEB
1 29184U 68002H   25329.72794703  .00001116  00000-0  26506-2 0  9990
2 29184 105.8240 279.0108 0256423 214.9223 143.4807 13.16494323531774
Epoch: 2025-11-25T17:28Z
TLE epoch observation values (Epoch: 2025-11-25T17:28:14.623Z)
Latitude
-0°
Longitude
-47.95953°
Altitude
1,358.476 km
Speed
7.104 km/s
True Right ascension
18h 36m 02s
True Declination
0° 00' 00"
Sunlit
Object was in daylight at epoch
Visualization orbit readout
Latitude
Unknown
Longitude
Unknown
Altitude
Unknown
Speed
Unknown
Apparent Right ascension
Unknown
Apparent Declination
Unknown
Sunlit
N/A
Visualization observer readout
Local Sidereal Time
01:57:04
Azimuth
Unknown
Elevation
Unknown
Doppler factor
Unknown
Orbital elements
Apogee altitude
1,390.1 km
Perigee altitude
1,001.669 km
Semi-major axis
7,574.022 km
Eccentricity
0.02564
Inclination
105.824°
RAAN
279.0108°
Arg. of periapsis
214.9223°
True anomaly
145.18511°
Mean anomaly
143.4807°
Eccentric anomaly
144.33726°
Mean motion
3.29271 °/min
Orbital period
109.33 mins
BSTAR
0.0026506
Loading maneuver chart data...
Computing Atmospheric mass density...
Loading historical data...
Loading historical data...
Loading historical data...
Loading historical data...
Loading historical data...
Loading historical data...
Loading historical data...

Documentation

Showing up to 5 results
|